Temp
-10 -9 -9 -9 -9 -9 -9 -9 -9 -9 -9 -9 -9 -9 -9 -9 -9 -9 -9 -9 -9 -9 -9 -9 -9 -9 -9 -9 -9 -9 -9 -10 -10 -10 -10 -10 -10 -10 -11 -11 -11 -10 -11 -10 -10
-10 -10 -10 -10 -10 -9 -9 -9 -9 -9 -9 -9 -10 -10 -10 -10 -9 -9 -9 -9 -9 -9 -9 -9 -9 -9 -9 -9 -9 -9 -9 -10 -10 -10 -10 -10 -10 -10 -10 -11 -11 -11 -11 -11 -11
-10 -10 -10 -10 -10 -10 -10 -10 -9 -10 -10 -10 -10 -10 -10 -10 -10 -10 -9 -9 -9 -9 -9 -9 -9 -9 -9 -9 -9 -9 -10 -10 -10 -10 -10 -10 -11 -11 -10 -11 -11 -11 -11 -11 -11
-10 -10 -10 -10 -10 -10 -10 -10 -10 -10 -10 -10 -10 -10 -10 -10 -10 -9 -9 -9 -9 -9 -9 -9 -9 -9 -10 -10 -10 -9 -10 -10 -10 -10 -10 -10 -10 -11 -11 -11 -11 -11 -11 -11 -11
-10 -10 -10 -10 -10 -10 -10 -10 -10 -10 -10 -10 -10 -10 -10 -10 -10 -9 -9 -9 -9 -9 -9 -9 -10 -10 -10 -10 -10 -10 -10 -10 -10 -10 -11 -10 -11 -11 -11 -10 -11 -11 -11 -11 -11
-10 -10 -10 -10 -10 -10 -10 -10 -10 -10 -10 -10 -10 -10 -10 -10 -10 -10 -10 -10 -9 -10 -10 -10 -10 -10 -10 -10 -10 -10 -10 -10 -10 -11 -11 -11 -11 -11 -11 -10 -10 -11 -11 -11 -11
-11 -11 -10 -10 -10 -10 -10 -10 -10 -10 -10 -10 -10 -10 -10 -10 -10 -10 -10 -10 -10 -10 -10 -10 -10 -10 -10 -10 -10 -10 -10 -10 -11 -10 -10 -10 -11 -11 -11 -11 -10 -11 -11 -11 -11
-11 -11 -11 -11 -11 -11 -11 -11 -11 -11 -10 -10 -10 -10 -10 -10 -11 -10 -10 -10 -10 -11 -10 -10 -10 -11 -11 -10 -10 -10 -10 -10 -11 -10 -11 -10 -10 -11 -11 -11 -10 -11 -11 -10 -9
-11 -11 -11 -11 -11 -11 -11 -11 -11 -11 -11 -11 -11 -11 -11 -11 -11 -11 -11 -11 -11 -11 -11 -11 -11 -11 -11 -11 -11 -11 -10 -10 -11 -11 -11 -10 -10 -10 -10 -11 -11 -11 -10 -9 -9
-12 -12 -12 -11 -11 -11 -11 -11 -11 -11 -11 -11 -11 -11 -11 -11 -11 -11 -11 -11 -11 -11 -11 -11 -11 -11 -11 -11 -10 -10 -10 -11 -11 -11 -11 -10 -9 -9 -10 -10 -10 -10 -10 -10 -10
-12 -12 -12 -12 -12 -12 -12 -12 -11 -11 -12 -12 -11 -11 -11 -11 -11 -11 -11 -11 -11 -11 -11 -11 -11 -11 -11 -11 -11 -11 -11 -10 -11 -11 -10 -10 -10 -10 -11 -11 -10 -10 -10 -10 -11
-13 -13 -13 -13 -12 -12 -12 -12 -12 -12 -11 -12 -12 -11 -11 -12 -11 -11 -11 -11 -11 -11 -11 -11 -11 -11 -11 -11 -11 -11 -11 -11 -11 -11 -11 -11 -10 -11 -11 -11 -11 -12 -12 -12 -11
-13 -13 -13 -13 -13 -13 -12 -12 -12 -12 -12 -12 -12 -12 -11 -12 -11 -12 -12 -11 -11 -11 -11 -11 -11 -11 -11 -12 -12 -12 -12 -12 -12 -12 -12 -11 -11 -11 -11 -11 -11 -12 -12 -12 -12
-13 -13 -13 -13 -12 -13 -13 -13 -12 -12 -12 -11 -12 -11 -12 -12 -12 -12 -12 -12 -12 -12 -12 -12 -12 -12 -12 -12 -12 -13 -13 -12 -13 -12 -12 -12 -11 -12 -12 -12 -12 -13 -13 -13 -13
-13 -13 -13 -13 -13 -13 -13 -12 -12 -12 -12 -11 -11 -12 -12 -13 -12 -12 -12 -12 -12 -12 -12 -12 -12 -13 -13 -13 -13 -13 -13 -13 -13 -13 -12 -13 -12 -12 -12 -13 -13 -13 -13 -14 -15
-13 -13 -13 -13 -13 -13 -13 -13 -13 -13 -12 -12 -12 -13 -13 -13 -13 -13 -13 -13 -13 -13 -13 -13 -13 -14 -14 -14 -14 -14 -14 -14 -14 -14 -13 -13 -13 -12 -13 -13 -13 -14 -14 -15 -15
-14 -13 -13 -13 -13 -14 -14 -14 -14 -13 -13 -13 -13 -14 -14 -13 -13 -14 -13 -14 -14 -14 -13 -13 -14 -14 -14 -14 -14 -15 -14 -14 -14 -14 -14 -14 -13 -13 -14 -14 -14 -14 -14 -15 -16
-14 -14 -14 -14 -14 -14 -14 -14 -13 -13 -14 -14 -14 -14 -14 -14 -15 -14 -14 -14 -14 -14 -14 -14 -14 -15 -15 -15 -15 -14 -15 -15 -15 -15 -14 -15 -14 -14 -15 -15 -15 -15 -15 -16 -16
-14 -14 -14 -14 -14 -14 -14 -14 -13 -14 -14 -14 -14 -14 -15 -15 -15 -15 -15 -15 -15 -16 -15 -15 -15 -15 -15 -15 -15 -15 -15 -16 -17 -16 -16 -15 -15 -15 -16 -16 -16 -16 -16 -16 -16
-14 -14 -14 -14 -14 -14 -15 -14 -14 -15 -15 -15 -14 -15 -15 -15 -15 -15 -16 -15 -16 -16 -16 -16 -16 -15 -16 -16 -16 -17 -17 -17 -17 -18 -17 -16 -16 -17 -17 -17 -18 -18 -17 -17 -17
-14 -15 -14 -14 -14 -14 -14 -15 -15 -15 -15 -15 -15 -15 -16 -17 -17 -16 -16 -16 -15 -15 -16 -17 -16 -16 -16 -17 -18 -18 -18 -18 -19 -19 -19 -19 -18 -18 -18 -19 -19 -19 -19 -19 -19
-15 -15 -15 -15 -15 -15 -16 -16 -16 -16 -16 -16 -16 -16 -17 -18 -18 -18 -17 -17 -16 -17 -17 -17 -18 -17 -17 -18 -19 -19 -19 -19 -20 -19 -20 -20 -20 -19 -20 -20 -20 -21 -21 -21 -20
-16 -16 -15 -15 -15 -16 -16 -16 -16 -16 -17 -17 -17 -17 -18 -18 -18 -18 -18 -18 -17 -17 -17 -18 -18 -18 -18 -19 -19 -20 -19 -20 -20 -20 -20 -21 -20 -21 -21 -22 -22 -22 -22 -22 -22
-16 -16 -16 -16 -16 -16 -16 -16 -16 -17 -17 -18 -19 -19 -19 -19 -19 -19 -18 -18 -19 -19 -19 -19 -19 -19 -19 -20 -20 -20 -20 -20 -21 -22 -22 -21 -22 -22 -23 -24 -24 -24 -23 -23 -23
-17 -17 -16 -16 -16 -17 -18 -17 -17 -17 -18 -19 -19 -19 -20 -19 -19 -18 -19 -19 -19 -20 -20 -20 -20 -20 -20 -20 -20 -21 -20 -21 -22 -23 -24 -23 -24 -23 -24 -23 -24 -24 -24 -24 -24
-18 -18 -17 -18 -18 -19 -19 -19 -19 -19 -19 -19 -20 -20 -20 -20 -19 -19 -20 -20 -20 -20 -20 -20 -21 -21 -21 -21 -21 -21 -21 -21 -22 -23 -23 -24 -24 -24 -24 -24 -24 -24 -24 -24 -24
-19 -20 -20 -19 -19 -19 -19 -19 -19 -19 -19 -19 -20 -21 -21 -21 -20 -20 -20 -21 -21 -21 -21 -21 -21 -22 -22 -22 -22 -22 -22 -23 -23 -23 -24 -24 -24 -24 -24 -24 -24 -25 -25 -24 -24
Height
5862 5864 5865 5866 5867 5868 5868 5869 5870 5870 5871 5871 5872 5872 5873 5873 5874 5875 5875 5875 5875 5875 5875 5875 5875 5874 5874 5873 5872 5871 5872 5870 5867 5866 5865 5865 5865 5864 5864 5862 5861 5862 5859 5858 5858
5858 5860 5861 5862 5863 5864 5864 5865 5865 5866 5867 5868 5868 5869 5870 5870 5871 5871 5871 5871 5870 5871 5871 5871 5871 5870 5870 5870 5868 5867 5867 5865 5863 5862 5863 5861 5859 5858 5861 5861 5857 5856 5855 5854 5855
5853 5854 5856 5857 5858 5859 5860 5861 5861 5862 5863 5863 5864 5865 5866 5867 5867 5866 5867 5867 5866 5866 5866 5866 5866 5866 5865 5864 5864 5864 5862 5860 5859 5858 5858 5858 5855 5854 5854 5857 5852 5852 5852 5849 5850
5847 5848 5850 5851 5852 5853 5854 5855 5856 5857 5858 5859 5860 5861 5861 5863 5863 5861 5861 5861 5861 5860 5860 5859 5859 5859 5860 5858 5857 5858 5857 5856 5855 5852 5853 5853 5853 5851 5851 5847 5850 5849 5847 5847 5843
5840 5842 5843 5845 5846 5847 5848 5849 5850 5852 5852 5853 5854 5855 5856 5857 5856 5854 5855 5855 5855 5854 5853 5853 5852 5853 5853 5852 5851 5850 5851 5851 5850 5848 5847 5847 5848 5846 5846 5843 5843 5844 5843 5841 5838
5832 5834 5835 5837 5839 5840 5841 5842 5843 5844 5846 5846 5847 5848 5850 5851 5851 5848 5847 5848 5848 5847 5847 5846 5846 5846 5846 5846 5843 5844 5844 5844 5844 5840 5840 5839 5842 5840 5840 5839 5839 5837 5837 5834 5831
5823 5825 5827 5829 5830 5832 5833 5834 5835 5836 5837 5839 5840 5840 5842 5843 5843 5842 5841 5840 5840 5840 5840 5840 5838 5839 5839 5838 5837 5837 5836 5837 5836 5832 5832 5830 5835 5833 5831 5832 5832 5832 5830 5825 5820
5815 5817 5818 5820 5822 5823 5825 5826 5827 5828 5829 5830 5831 5832 5832 5835 5834 5834 5833 5833 5832 5833 5832 5832 5831 5830 5830 5830 5828 5829 5826 5828 5830 5827 5824 5823 5821 5830 5826 5826 5827 5824 5821 5818 5814
5806 5808 5810 5811 5813 5815 5816 5817 5818 5819 5820 5821 5823 5823 5824 5827 5827 5826 5826 5825 5825 5825 5824 5824 5823 5823 5823 5821 5819 5820 5816 5818 5820 5821 5816 5814 5811 5813 5819 5819 5817 5815 5813 5808 5808
5797 5799 5801 5802 5803 5805 5806 5808 5809 5810 5812 5813 5813 5815 5815 5818 5817 5818 5818 5818 5817 5817 5816 5815 5814 5815 5815 5810 5811 5810 5808 5808 5808 5810 5807 5806 5806 5800 5799 5804 5808 5804 5801 5803 5803
5788 5790 5791 5793 5794 5796 5798 5800 5802 5802 5804 5805 5804 5805 5805 5808 5809 5809 5809 5809 5809 5809 5807 5806 5806 5808 5803 5803 5802 5801 5799 5798 5799 5796 5795 5797 5794 5798 5793 5790 5793 5796 5794 5793 5791
5778 5780 5781 5783 5785 5787 5788 5789 5791 5791 5793 5796 5796 5794 5796 5797 5798 5800 5802 5800 5800 5800 5798 5797 5797 5798 5794 5794 5794 5791 5789 5788 5786 5785 5785 5783 5783 5783 5783 5783 5780 5780 5781 5783 5784
5766 5769 5771 5773 5773 5775 5777 5778 5779 5779 5780 5787 5785 5784 5783 5787 5787 5790 5790 5789 5789 5789 5789 5787 5788 5786 5786 5784 5783 5784 5782 5779 5776 5776 5776 5772 5772 5772 5770 5769 5770 5769 5767 5766 5766
5754 5757 5759 5761 5762 5763 5765 5767 5767 5768 5768 5769 5773 5773 5774 5775 5776 5777 5777 5778 5777 5778 5778 5778 5777 5775 5775 5774 5771 5772 5771 5769 5767 5765 5764 5764 5761 5763 5758 5759 5757 5754 5753 5753 5753
5742 5744 5745 5747 5749 5751 5753 5754 5755 5757 5757 5757 5756 5759 5762 5766 5767 5767 5766 5766 5766 5767 5768 5768 5767 5768 5767 5764 5763 5763 5762 5761 5758 5756 5755 5758 5754 5751 5749 5748 5747 5746 5744 5742 5742
5728 5731 5732 5734 5737 5739 5740 5742 5744 5746 5742 5746 5746 5749 5751 5752 5752 5753 5754 5755 5756 5756 5756 5756 5757 5757 5756 5756 5755 5753 5751 5749 5747 5746 5746 5746 5746 5745 5740 5738 5735 5734 5733 5731 5729
5718 5719 5720 5723 5726 5727 5729 5732 5733 5730 5734 5736 5738 5740 5741 5740 5740 5741 5741 5742 5745 5746 5746 5747 5748 5745 5745 5745 5745 5744 5743 5741 5738 5738 5739 5736 5734 5734 5730 5728 5727 5725 5722 5719 5716
5706 5708 5711 5713 5714 5715 5718 5720 5720 5721 5723 5727 5728 5729 5729 5729 5730 5730 5731 5732 5733 5733 5733 5734 5737 5739 5738 5735 5734 5731 5732 5731 5725 5726 5727 5725 5724 5725 5719 5717 5715 5715 5712 5708 5705
5694 5697 5700 5702 5703 5704 5706 5706 5708 5711 5713 5715 5717 5718 5719 5718 5719 5720 5721 5721 5721 5724 5724 5722 5723 5723 5722 5723 5722 5721 5718 5717 5712 5713 5711 5715 5714 5711 5706 5702 5703 5700 5697 5694 5692
5679 5684 5689 5690 5691 5691 5692 5693 5696 5700 5702 5702 5703 5705 5707 5707 5707 5707 5708 5709 5711 5712 5711 5712 5711 5711 5710 5707 5707 5706 5705 5703 5700 5694 5693 5698 5700 5695 5689 5689 5686 5683 5682 5679 5675
5664 5668 5674 5675 5676 5676 5677 5682 5684 5684 5688 5689 5691 5691 5692 5692 5694 5694 5695 5697 5697 5696 5696 5697 5697 5702 5698 5696 5694 5694 5692 5689 5687 5683 5679 5677 5683 5683 5676 5672 5669 5668 5665 5664 5660
5650 5654 5655 5657 5661 5662 5666 5669 5672 5673 5673 5676 5678 5678 5680 5679 5680 5681 5682 5679 5681 5683 5682 5680 5679 5683 5686 5681 5679 5680 5679 5675 5668 5667 5663 5660 5662 5669 5661 5652 5652 5650 5648 5645 5641
5635 5640 5642 5644 5648 5653 5655 5656 5657 5660 5662 5661 5663 5666 5666 5667 5666 5670 5669 5669 5669 5669 5668 5669 5664 5666 5670 5668 5666 5664 5664 5661 5652 5647 5647 5643 5646 5652 5645 5639 5633 5630 5628 5625 5622
5621 5623 5628 5630 5636 5639 5639 5642 5644 5646 5647 5648 5649 5650 5653 5654 5654 5653 5654 5653 5654 5655 5655 5653 5652 5650 5652 5647 5646 5646 5649 5647 5636 5631 5631 5629 5629 5634 5632 5621 5617 5612 5608 5607 5604
5604 5606 5612 5615 5621 5621 5623 5629 5629 5632 5633 5634 5636 5638 5640 5640 5640 5640 5637 5638 5639 5641 5640 5639 5637 5634 5636 5634 5629 5628 5633 5634 5620 5619 5608 5613 5610 5615 5611 5606 5601 5598 5593 5588 5584
5591 5595 5598 5601 5604 5603 5606 5616 5616 5615 5616 5620 5622 5621 5620 5625 5626 5626 5624 5621 5622 5623 5623 5623 5617 5617 5617 5614 5611 5609 5617 5611 5611 5605 5596 5593 5587 5594 5589 5585 5580 5576 5573 5568 5562
5576 5580 5584 5588 5591 5592 5595 5600 5598 5597 5599 5603 5606 5604 5603 5607 5609 5609 5607 5607 5605 5605 5607 5605 5602 5599 5597 5596 5590 5590 5602 5596 5591 5592 5584 5575 5574 5568 5567 5564 5560 5554 5550 5544 5539
Wind_Speed
21 21 20 19 18 17 17 16 16 15 15 15 14 13 13 12 12 12 13 15 15 16 16 17 19 18 19 21 24 24 23 23 25 25 23 20 19 16 17 17 18 17 21 21 17
26 25 24 24 23 22 21 19 19 17 16 17 18 17 17 17 18 19 19 19 21 22 22 23 23 24 25 26 28 27 25 24 24 25 23 23 23 22 18 16 22 20 21 21 19
31 30 30 28 27 26 24 22 22 20 19 18 18 19 21 21 22 24 24 25 26 26 26 28 28 30 31 29 26 24 24 24 24 25 24 22 24 27 27 19 25 25 23 26 21
35 34 34 32 31 29 27 26 25 25 23 22 22 22 23 23 27 29 28 29 31 32 32 32 33 30 27 26 26 24 24 24 25 29 26 26 25 27 28 31 24 26 27 27 29
39 39 38 37 35 34 33 32 31 30 29 28 28 28 28 28 31 34 34 34 35 36 36 33 29 27 28 29 29 25 23 24 27 29 28 29 29 31 29 30 30 28 29 29 31
41 41 40 40 40 39 39 37 37 36 35 34 33 33 34 34 34 37 37 36 35 35 33 30 31 31 31 29 30 27 28 29 27 30 31 34 30 31 30 31 32 33 30 30 32
42 42 43 43 42 41 39 39 39 39 39 39 39 39 37 36 33 33 33 31 31 32 33 34 37 36 33 32 32 32 34 32 30 35 35 38 32 33 34 33 33 30 29 34 37
44 44 43 42 43 44 43 42 42 42 43 43 42 39 37 33 32 32 33 35 36 37 38 38 37 36 34 35 37 36 40 36 32 34 37 40 42 34 37 35 29 27 31 34 36
43 44 44 44 43 44 42 42 42 41 41 41 40 40 39 35 35 35 37 37 37 36 36 37 38 39 38 41 42 39 42 39 37 34 39 39 42 41 33 31 31 32 33 36 36
44 42 43 43 43 44 44 44 43 44 42 42 41 40 39 35 35 35 36 37 38 39 40 41 42 40 38 42 41 40 41 41 41 41 43 44 42 44 44 40 36 36 35 35 36
44 42 43 46 45 45 45 43 43 43 41 41 42 41 42 39 39 38 38 38 39 39 40 41 41 36 41 42 42 44 46 48 47 48 49 45 45 39 44 47 43 41 42 39 37
46 46 46 46 46 47 46 46 46 47 44 40 40 43 41 39 40 39 38 40 39 40 41 43 43 42 47 46 45 47 49 48 48 47 47 46 44 41 39 41 43 46 45 43 43
49 49 51 48 51 52 50 50 47 48 47 40 43 46 47 45 43 39 39 40 40 40 39 41 41 42 42 41 39 38 40 41 44 44 43 49 47 46 44 46 44 43 42 43 43
55 53 56 53 53 54 54 53 53 52 52 53 49 48 47 45 42 36 33 35 36 35 35 36 36 37 38 39 42 40 40 43 43 47 49 46 52 46 49 49 49 48 49 46 42
57 58 56 52 50 51 53 54 54 52 54 53 50 43 37 36 38 39 40 40 37 35 36 37 38 36 35 39 41 42 42 41 43 46 51 47 54 53 51 50 49 49 50 49 45
46 47 48 46 44 44 44 43 44 45 51 48 46 43 41 40 39 39 37 38 39 38 39 41 41 38 39 38 37 40 42 43 45 47 52 51 52 55 54 54 53 54 51 52 53
44 46 44 44 42 40 41 39 37 44 46 46 43 40 40 42 42 41 43 41 39 40 42 41 39 41 38 39 41 43 45 48 51 50 50 50 51 50 49 48 49 49 52 52 52
44 46 43 45 43 45 43 42 47 49 48 46 44 42 41 41 41 41 43 43 42 42 43 41 40 39 41 44 43 44 42 43 47 47 48 46 50 49 51 51 52 51 51 53 53
46 43 41 43 46 48 51 53 53 50 47 47 45 46 46 46 44 45 45 46 44 41 43 44 44 44 44 43 44 43 44 44 44 45 48 50 48 49 51 53 52 52 55 57 59
57 55 51 48 53 55 56 56 50 45 47 46 51 50 46 43 47 47 45 47 44 42 42 42 43 45 44 45 43 41 44 46 47 50 52 52 51 52 53 51 53 55 55 58 60
53 55 57 60 59 58 59 54 52 53 52 50 49 49 44 39 41 45 48 49 51 51 46 43 45 45 45 43 41 43 44 46 48 50 52 54 53 50 52 54 56 58 58 56 57
55 61 55 54 58 56 55 51 51 46 50 49 50 49 46 42 45 47 49 52 54 50 47 47 48 48 44 44 45 45 46 48 52 54 56 57 56 50 53 58 57 57 58 59 60
51 54 58 60 61 56 56 54 55 55 49 49 50 46 42 44 47 45 44 47 49 50 49 48 52 51 49 49 49 49 49 52 56 57 58 59 61 54 56 56 58 60 62 62 65
63 57 59 61 61 60 59 60 60 56 53 47 45 45 45 46 49 50 53 50 48 48 49 50 49 50 51 51 53 54 53 55 59 61 60 61 59 57 54 57 61 64 66 67 70
57 60 61 62 63 56 56 59 53 53 52 48 48 48 48 49 50 51 49 49 48 47 49 51 52 54 53 55 59 59 58 58 62 60 62 63 62 61 60 63 66 67 69 71 74
51 56 57 57 55 57 48 50 51 56 58 52 51 52 56 54 51 49 48 49 51 52 52 53 57 58 58 60 62 65 61 64 63 64 67 67 70 65 68 70 72 73 74 75 77
61 56 54 55 56 61 54 55 61 60 63 61 56 51 52 50 51 50 50 51 54 55 56 58 61 62 63 63 66 68 60 61 65 65 68 71 71 73 72 73 74 76 77 79 80
Wind_Direction
245 248 250 254 261 266 271 276 276 273 268 262 257 252 250 256 260 264 274 280 282 284 290 294 296 295 296 297 299 298 296 294 291 296 298 300 302 297 303 301 301 306 309 317 323
249 252 254 259 263 267 271 273 272 267 264 261 256 254 255 258 265 272 275 278 282 285 287 290 292 294 296 296 295 296 298 292 291 291 295 299 298 299 299 298 295 297 295 302 310
251 254 257 259 263 266 267 269 269 263 258 257 257 258 261 266 270 273 275 278 280 282 287 290 291 293 294 294 289 293 292 289 286 288 287 286 292 299 305 304 285 292 296 299 301
252 254 257 260 262 265 266 267 265 263 261 259 261 263 266 271 276 276 278 280 282 285 287 287 288 288 288 290 290 290 283 287 288 288 285 280 285 289 301 291 291 293 295 296 298
253 255 257 259 260 262 264 265 265 263 261 262 263 265 267 271 275 278 278 278 279 281 284 285 284 290 290 289 289 286 283 290 290 289 281 279 282 288 290 292 296 294 295 294 290
255 256 257 259 260 260 261 262 263 264 263 263 264 266 269 271 274 277 279 280 281 281 281 279 284 287 288 289 285 285 288 290 290 282 280 281 282 288 284 290 294 296 293 287 284
255 257 258 258 259 259 259 261 262 263 264 266 268 271 272 274 273 275 277 279 279 280 280 283 286 289 290 285 287 288 289 291 285 286 290 289 284 281 285 286 291 290 288 288 290
255 257 258 260 261 261 260 261 262 264 267 270 272 272 271 270 272 272 273 275 277 279 280 282 285 286 288 289 288 289 288 285 283 290 291 287 287 284 286 289 287 281 277 282 287
254 255 257 258 260 261 262 262 264 265 266 268 270 271 271 272 271 271 273 276 278 280 281 282 283 285 289 288 287 288 288 292 291 288 291 293 293 296 287 285 283 282 279 281 286
255 258 259 259 261 261 261 262 264 266 268 269 271 273 273 274 272 272 274 276 278 279 280 281 283 285 287 285 289 290 289 288 289 290 289 294 298 297 298 297 291 281 272 278 281
257 259 262 263 261 263 265 264 264 264 266 269 271 270 274 275 276 277 277 279 279 280 280 280 282 285 279 281 284 286 286 288 289 288 290 289 287 287 287 292 291 286 283 285 283
257 263 265 265 266 266 266 266 266 268 267 267 270 273 272 275 275 277 277 278 279 280 280 281 279 281 281 282 283 284 287 288 289 289 290 290 291 291 289 292 293 296 295 289 285
257 261 269 269 269 265 267 270 270 270 272 265 271 273 274 277 278 276 276 279 279 279 277 280 284 282 281 283 283 284 284 285 287 287 288 291 293 296 297 295 297 299 298 299 300
257 263 268 271 268 267 267 269 271 272 273 275 275 273 272 276 280 280 277 280 280 281 282 283 281 280 286 288 288 287 286 287 289 291 293 297 296 300 300 303 304 305 306 304 302
260 263 267 266 266 265 266 268 270 272 272 273 276 278 278 275 279 280 283 283 282 283 284 286 283 283 281 279 283 288 289 289 289 290 291 296 295 299 301 302 302 302 306 307 306
258 259 261 264 267 266 263 267 268 268 268 269 274 279 283 286 284 282 280 281 282 283 285 283 283 284 281 283 284 286 288 289 290 292 291 294 296 295 299 302 303 305 304 301 300
255 257 258 263 271 262 259 261 267 268 271 271 275 280 283 281 280 281 282 280 279 280 281 281 283 283 285 286 287 287 288 291 291 291 293 295 295 297 299 297 296 296 295 296 294
251 253 259 257 264 259 257 260 266 271 272 272 276 278 279 279 279 277 277 280 281 280 282 281 280 278 281 284 286 287 288 287 287 289 291 292 295 296 294 292 291 289 287 287 287
247 246 244 253 251 247 254 259 265 268 270 271 269 269 272 273 273 275 278 279 279 282 282 283 284 284 285 286 288 289 287 287 287 287 287 290 291 292 291 290 290 288 286 286 287
245 248 250 248 241 247 254 256 257 263 261 264 267 267 267 269 272 275 274 273 274 278 283 287 285 287 288 289 289 285 287 289 289 287 288 294 296 296 292 291 287 285 284 284 282
240 246 243 242 245 253 259 258 259 262 264 262 260 260 265 274 277 277 276 278 279 286 292 289 284 287 286 286 280 280 283 284 283 281 282 284 290 290 287 283 280 282 282 281 278
237 238 232 235 241 242 252 258 259 257 260 261 261 261 267 279 281 285 290 290 290 290 287 286 287 287 287 282 281 279 283 283 281 283 280 280 282 284 279 278 279 278 278 276 272
235 237 239 239 240 245 246 249 254 256 258 262 267 274 279 281 283 285 283 284 284 284 284 284 283 285 288 284 279 278 281 283 280 278 278 276 284 286 284 283 282 279 277 277 276
245 245 243 241 245 247 251 253 258 265 273 282 283 282 281 280 282 283 284 279 279 281 281 280 280 279 282 278 279 278 280 280 276 275 278 280 284 284 284 282 281 282 282 281 280
255 260 252 257 257 263 266 263 271 275 279 280 278 278 278 278 280 282 281 281 280 276 274 271 272 272 276 277 276 275 278 278 275 281 281 286 282 285 281 279 278 278 279 279 279
245 257 266 266 271 274 272 271 274 280 278 274 273 276 279 280 278 278 278 276 272 275 272 272 273 273 272 272 273 273 278 277 279 280 281 285 283 284 282 282 280 281 282 282 282
250 268 265 260 258 260 267 271 272 272 271 274 278 275 273 274 274 275 274 269 269 270 271 270 271 272 272 273 272 271 279 275 276 279 281 281 282 284 284 283 285 285 286 286 286